Weather History for Lawrenceville, IL

Change the Weather History Date:

Saturday, February 9, 2013

  Actual Average Record
Temperature  
Mean Temperature 38 °F 34 °F  
Max Temperature 45 °F 42 °F 68 °F (2009)
Min Temperature 31 °F 26 °F 9 °F (2011)
Degree Days  
Heating Degree Days 27 31  
Month to date heating degree days 288 288  
Since 1 July heating degree days 3142 3139  
Cooling Degree Days 0 0  
Month to date cooling degree days 0 0  
Year to date cooling degree days 0 0  
Moisture  
Dew Point 27 °F    
Average Humidity 69    
Maximum Humidity 85    
Minimum Humidity 53    
Precipitation  
Precipitation 0.00 in 0.08 in 0.67 in (2001)
Month to date precipitation 0.12 0.68  
Year to date precipitation 6.53 3.06  
Sea Level Pressure  
Sea Level Pressure 30.31 in    
Wind  
Wind Speed 7 mph (ESE)    
Max Wind Speed 14 mph    
Max Gust Speed 17 mph    
Visibility 9 miles    
Events      
T = Trace of Precipitation, MM = Missing Value Source: NWS Daily Summary

Daily Weather History Graph

Daily Weather History Graph

Search for Another Location

Airport:

Trip Planner

Search our weather history database for the weather conditions in past years. The results will help you decide how hot, cold, wet, or windy it might be!

Date:

Astronomy

Feb. 09, 2013 Rise Set
Actual Time 6:48 AM CST 5:21 PM CST
Civil Twilight 6:20 AM CST 5:49 PM CST
Nautical Twilight 5:49 AM CST 6:20 PM CST
Astronomical Twilight 5:18 AM CST 6:51 PM CST
Moon 5:59 AM CST (2/9) 5:03 PM CST (2/9)
Length of Visible Light 11h 28m
Length of Day
10h 33m
Waning Crescent, 0% of the Moon is Illuminated
Feb 9
Waning Crescent
Feb 10
New
Feb 17
First Quarter
Feb 25
Full
Mar 4
Last Quarter

Hourly Weather History & Observations

Time (CST) Temp. Windchill Dew Point Humidity Pressure Visibility Wind Dir Wind Speed Gust Speed Precip Events Conditions
12:53 AM 33.1 °F 28.7 °F 24.1 °F 70% 30.40 in 10.0 mi NE 4.6 mph - N/A   Overcast
1:53 AM 33.1 °F 27.7 °F 24.1 °F 70% 30.39 in 10.0 mi East 5.8 mph - N/A   Overcast
2:53 AM 33.1 °F 27.7 °F 25.0 °F 72% 30.39 in 9.0 mi East 5.8 mph - N/A   Overcast
3:53 AM 33.1 °F 26.9 °F 24.1 °F 70% 30.40 in 10.0 mi East 6.9 mph - N/A   Overcast
4:53 AM 32.0 °F 28.7 °F 24.1 °F 73% 30.41 in 9.0 mi East 3.5 mph - N/A   Overcast
5:53 AM 32.0 °F - 24.1 °F 73% 30.41 in 9.0 mi Calm Calm - N/A   Overcast
6:53 AM 30.9 °F 27.5 °F 26.1 °F 82% 30.42 in 8.0 mi ESE 3.5 mph - N/A   Overcast
7:36 AM 30.2 °F 22.6 °F 24.8 °F 80% 30.39 in 6.0 mi East 8.1 mph - N/A   Haze
7:53 AM 32.0 °F 24.2 °F 24.1 °F 73% 30.41 in 7.0 mi East 9.2 mph - N/A   Clear
8:53 AM 33.1 °F 23.9 °F 25.0 °F 72% 30.41 in 7.0 mi ESE 12.7 mph - N/A   Clear
9:53 AM 36.0 °F 29.0 °F 26.1 °F 67% 30.41 in 8.0 mi SE 9.2 mph - N/A   Partly Cloudy
10:53 AM 36.0 °F 31.1 °F 26.1 °F 67% 30.40 in 8.0 mi SE 5.8 mph - N/A   Partly Cloudy
11:53 AM 39.0 °F 33.4 °F 28.0 °F 65% 30.36 in 8.0 mi SSE 8.1 mph - N/A   Clear
12:53 PM 41.0 °F 35.2 °F 28.0 °F 60% 30.32 in 8.0 mi East 9.2 mph - N/A   Clear
1:53 PM 43.0 °F 39.5 °F 28.9 °F 58% 30.30 in 9.0 mi SE 5.8 mph - N/A   Clear
2:53 PM 45.0 °F 40.1 °F 28.9 °F 53% 30.28 in 9.0 mi SSE 9.2 mph - N/A   Clear
3:53 PM 45.0 °F 40.6 °F 28.9 °F 53% 30.25 in 9.0 mi ESE 8.1 mph - N/A   Clear
4:53 PM 41.0 °F 36.4 °F 30.9 °F 67% 30.24 in 9.0 mi ESE 6.9 mph - N/A   Clear
5:53 PM 36.0 °F 30.3 °F 28.9 °F 76% 30.22 in 9.0 mi ESE 6.9 mph - N/A   Clear
6:53 PM 36.0 °F 29.6 °F 28.0 °F 73% 30.22 in 9.0 mi East 8.1 mph - N/A   Clear
7:53 PM 37.0 °F 31.0 °F 28.0 °F 70% 30.20 in 8.0 mi East 8.1 mph - N/A   Clear
8:53 PM 36.0 °F 29.6 °F 28.0 °F 73% 30.19 in 9.0 mi ESE 8.1 mph - N/A   Clear
9:53 PM 37.0 °F 31.6 °F 28.0 °F 70% 30.16 in 9.0 mi East 6.9 mph - N/A   Clear
10:53 PM 37.0 °F 31.6 °F 28.0 °F 70% 30.14 in 9.0 mi ESE 6.9 mph - N/A   Clear
11:53 PM 39.0 °F 32.8 °F 28.9 °F 67% 30.14 in 10.0 mi SE 9.2 mph - N/A   Overcast